{"data":{"norad_id":63500,"intl_designator":"2025-071H","name":"STARLINK-33838","alt_names":[],"object_type":"PAYLOAD","status":"ACTIVE","operator":null,"country":"US","launch_date":"2025-04-07","launch_site_code":"AFWTR","launch_vehicle":null,"mission":null,"orbit_class":"UNKNOWN","rcs_meters":null,"size_class":null,"mass_kg":null,"dimensions":null,"purposes":["comms"],"wikipedia_slug":null,"has_3d_model":false,"image_url":null,"decayed_at":null,"tle_current":{"epoch":"2026-05-24T17:31:51.310272Z","epoch_age_seconds":98060,"freshness":"FRESH","line1":"1 63500U 25071H   26144.73045498  .00010777  00000+0  37550-3 0  9990","line2":"2 63500  53.1591 146.6101 0001366  80.6087 279.5068 15.30195221 64202","mean_motion":15.30195221,"eccentricity":0.0001366,"inclination_deg":53.1591,"raan_deg":146.6101,"arg_perigee_deg":80.6087,"mean_anomaly_deg":279.5068,"bstar":0.0003755,"rev_number":6420,"period_min":94.105639609758,"perigee_km":474.29316884718,"apogee_km":476.16550853091,"semimajor_km":6853.366338689,"source":"CELESTRAK","updated_at":"2026-05-25T13:38:20.012981Z"}}}